Lage;Zeitpunkt der Messung;Wochentag;Fu�g�nger insgesamt;Temperatur in �c;Wetterlage;Fu�g�nger insgesamt Richtung Neumarkt;Fu�g�nger insgesamt Richtung Neuer Wall;Erwachsene;Kinder;Erwachsene Richtung Neumarkt;Erwachsene Richtung Neuer Wall;Kinder Richtung Neumarkt;Kinder Richtung Neuer Wall
Steinstra�e;2023-01-01 00:00:00 +0100;Sunday;169;15;wind;107;62;164;5;104;60;3;2
Steinstra�e;2023-01-01 01:00:00 +0100;Sunday;66;15;wind;29;37;65;1;29;36;0;1
Steinstra�e;2023-01-01 02:00:00 +0100;Sunday;46;16;wind;19;27;45;1;18;27;1;0
Steinstra�e;2023-01-01 03:00:00 +0100;Sunday;25;16;wind;10;15;25;0;10;15;0;0
Steinstra�e;2023-01-01 04:00:00 +0100;Sunday;18;15;wind;5;13;14;4;5;9;0;4
Steinstra�e;2023-01-01 05:00:00 +0100;Sunday;11;15;wind;6;5;11;0;6;5;0;0
Steinstra�e;2023-01-01 06:00:00 +0100;Sunday;6;15;wind;4;2;6;0;4;2;0;0
Steinstra�e;2023-01-01 07:00:00 +0100;Sunday;8;15;cloudy;7;1;8;0;7;1;0;0
Steinstra�e;2023-01-01 08:00:00 +0100;Sunday;15;14;cloudy;5;10;13;2;5;8;0;2
Steinstra�e;2023-01-01 09:00:00 +0100;Sunday;28;14;cloudy;17;11;28;0;17;11;0;0
Steinstra�e;2023-01-01 10:00:00 +0100;Sunday;78;14;cloudy;42;36;74;4;40;34;2;2
Steinstra�e;2023-01-01 11:00:00 +0100;Sunday;126;14;cloudy;73;53;125;1;72;53;1;0
Steinstra�e;2023-01-01 12:00:00 +0100;Sunday;188;14;cloudy;82;106;183;5;78;105;4;1
Steinstra�e;2023-01-01 13:00:00 +0100;Sunday;248;14;cloudy;129;119;240;8;123;117;6;2
Steinstra�e;2023-01-01 14:00:00 +0100;Sunday;383;15;cloudy;203;180;374;9;198;176;5;4
Steinstra�e;2023-01-01 15:00:00 +0100;Sunday;352;14;cloudy;195;157;333;19;185;148;10;9
Steinstra�e;2023-01-01 16:00:00 +0100;Sunday;480;14;cloudy;245;235;454;26;233;221;12;14
Steinstra�e;2023-01-01 17:00:00 +0100;Sunday;286;13;cloudy;107;179;274;12;101;173;6;6
Steinstra�e;2023-01-01 18:00:00 +0100;Sunday;90;13;cloudy;49;41;86;4;45;41;4;0
Steinstra�e;2023-01-01 19:00:00 +0100;Sunday;88;12;rain;41;47;87;1;40;47;1;0
Steinstra�e;2023-01-01 20:00:00 +0100;Sunday;52;11;rain;21;31;52;0;21;31;0;0
Steinstra�e;2023-01-01 21:00:00 +0100;Sunday;41;11;rain;25;16;39;2;24;15;1;1
Steinstra�e;2023-01-01 22:00:00 +0100;Sunday;29;11;rain;14;15;29;0;14;15;0;0
Steinstra�e;2023-01-01 23:00:00 +0100;Sunday;10;11;rain;5;5;10;0;5;5;0;0
Steinstra�e;2023-01-02 00:00:00 +0100;Monday;2;12;rain;0;2;2;0;0;2;0;0
Steinstra�e;2023-01-02 01:00:00 +0100;Monday;2;12;rain;1;1;2;0;1;1;0;0
Steinstra�e;2023-01-02 02:00:00 +0100;Monday;2;12;rain;1;1;2;0;1;1;0;0
Steinstra�e;2023-01-02 03:00:00 +0100;Monday;0;12;rain;0;0;0;0;0;0;0;0
Steinstra�e;2023-01-02 04:00:00 +0100;Monday;11;12;rain;3;8;11;0;3;8;0;0
Steinstra�e;2023-01-02 05:00:00 +0100;Monday;13;12;rain;5;8;13;0;5;8;0;0
Steinstra�e;2023-01-02 06:00:00 +0100;Monday;30;12;rain;19;11;30;0;19;11;0;0
Steinstra�e;2023-01-02 07:00:00 +0100;Monday;83;13;rain;50;33;81;2;48;33;2;0
Steinstra�e;2023-01-02 08:00:00 +0100;Monday;130;12;rain;73;57;124;6;68;56;5;1
Steinstra�e;2023-01-02 09:00:00 +0100;Monday;316;12;rain;148;168;312;4;146;166;2;2
Steinstra�e;2023-01-02 10:00:00 +0100;Monday;753;11;rain;353;400;735;18;345;390;8;10
Steinstra�e;2023-01-02 11:00:00 +0100;Monday;1077;10;rain;516;561;1047;30;500;547;16;14
Steinstra�e;2023-01-02 12:00:00 +0100;Monday;1257;10;rain;645;612;1211;46;616;595;29;17
Steinstra�e;2023-01-02 13:00:00 +0100;Monday;1419;10;rain;721;698;1390;29;706;684;15;14
Steinstra�e;2023-01-02 14:00:00 +0100;Monday;1404;10;rain;703;701;1370;34;680;690;23;11
Steinstra�e;2023-01-02 15:00:00 +0100;Monday;1478;10;rain;733;745;1431;47;708;723;25;22
Steinstra�e;2023-01-02 16:00:00 +0100;Monday;1694;10;rain;855;839;1615;79;815;800;40;39
Steinstra�e;2023-01-02 17:00:00 +0100;Monday;1167;9;rain;573;594;1139;28;560;579;13;15
Steinstra�e;2023-01-02 18:00:00 +0100;Monday;623;9;rain;296;327;609;14;287;322;9;5
Steinstra�e;2023-01-02 19:00:00 +0100;Monday;214;9;rain;112;102;210;4;109;101;3;1
Steinstra�e;2023-01-02 20:00:00 +0100;Monday;142;9;rain;76;66;141;1;75;66;1;0
Steinstra�e;2023-01-02 21:00:00 +0100;Monday;61;9;partly-cloudy-night;30;31;61;0;30;31;0;0
Steinstra�e;2023-01-02 22:00:00 +0100;Monday;53;8;partly-cloudy-night;13;40;52;1;13;39;0;1
Steinstra�e;2023-01-02 23:00:00 +0100;Monday;32;8;partly-cloudy-night;12;20;31;1;11;20;1;0
Steinstra�e;2023-01-03 00:00:00 +0100;Tuesday;12;8;partly-cloudy-night;8;4;12;0;8;4;0;0
Steinstra�e;2023-01-03 01:00:00 +0100;Tuesday;4;7;partly-cloudy-night;2;2;4;0;2;2;0;0
Steinstra�e;2023-01-03 02:00:00 +0100;Tuesday;3;7;partly-cloudy-night;2;1;3;0;2;1;0;0
Steinstra�e;2023-01-03 03:00:00 +0100;Tuesday;5;7;partly-cloudy-night;2;3;5;0;2;3;0;0
Steinstra�e;2023-01-03 04:00:00 +0100;Tuesday;7;6;partly-cloudy-night;3;4;7;0;3;4;0;0
Steinstra�e;2023-01-03 05:00:00 +0100;Tuesday;9;5;partly-cloudy-night;3;6;9;0;3;6;0;0
Steinstra�e;2023-01-03 06:00:00 +0100;Tuesday;38;5;partly-cloudy-night;26;12;35;3;24;11;2;1
Steinstra�e;2023-01-03 07:00:00 +0100;Tuesday;100;5;partly-cloudy-night;64;36;95;5;60;35;4;1
Steinstra�e;2023-01-03 08:00:00 +0100;Tuesday;238;5;partly-cloudy-night;125;113;233;5;123;110;2;3
Steinstra�e;2023-01-03 09:00:00 +0100;Tuesday;608;5;partly-cloudy-day;311;297;585;23;297;288;14;9
Steinstra�e;2023-01-03 10:00:00 +0100;Tuesday;1259;6;partly-cloudy-day;599;660;1207;52;573;634;26;26
Steinstra�e;2023-01-03 11:00:00 +0100;Tuesday;1983;7;partly-cloudy-day;1027;956;1911;72;991;920;36;36
Steinstra�e;2023-01-03 12:00:00 +0100;Tuesday;1958;8;partly-cloudy-day;955;1003;1906;52;928;978;27;25
Steinstra�e;2023-01-03 13:00:00 +0100;Tuesday;1950;9;partly-cloudy-day;973;977;1903;47;946;957;27;20
Steinstra�e;2023-01-03 14:00:00 +0100;Tuesday;1816;10;partly-cloudy-day;946;870;1747;69;905;842;41;28
Steinstra�e;2023-01-03 15:00:00 +0100;Tuesday;1859;10;partly-cloudy-day;947;912;1787;72;901;886;46;26
Steinstra�e;2023-01-03 16:00:00 +0100;Tuesday;1915;9;partly-cloudy-day;967;948;1847;68;934;913;33;35
Steinstra�e;2023-01-03 17:00:00 +0100;Tuesday;1320;8;partly-cloudy-night;665;655;1286;34;648;638;17;17
Steinstra�e;2023-01-03 18:00:00 +0100;Tuesday;711;7;partly-cloudy-night;371;340;697;14;366;331;5;9
Steinstra�e;2023-01-03 19:00:00 +0100;Tuesday;242;7;partly-cloudy-night;98;144;239;3;98;141;0;3
Steinstra�e;2023-01-03 20:00:00 +0100;Tuesday;118;6;cloudy;55;63;117;1;54;63;1;0
Steinstra�e;2023-01-03 21:00:00 +0100;Tuesday;89;6;cloudy;38;51;87;2;36;51;2;0
Steinstra�e;2023-01-03 22:00:00 +0100;Tuesday;47;6;cloudy;23;24;40;7;19;21;4;3
Steinstra�e;2023-01-03 23:00:00 +0100;Tuesday;15;7;cloudy;3;12;15;0;3;12;0;0
Steinstra�e;2023-01-04 00:00:00 +0100;Wednesday;7;7;cloudy;1;6;7;0;1;6;0;0
Steinstra�e;2023-01-04 01:00:00 +0100;Wednesday;8;8;cloudy;6;2;8;0;6;2;0;0
Steinstra�e;2023-01-04 02:00:00 +0100;Wednesday;1;9;rain;0;1;1;0;0;1;0;0
Steinstra�e;2023-01-04 03:00:00 +0100;Wednesday;3;9;rain;0;3;3;0;0;3;0;0
Steinstra�e;2023-01-04 04:00:00 +0100;Wednesday;7;9;rain;3;4;7;0;3;4;0;0
Steinstra�e;2023-01-04 05:00:00 +0100;Wednesday;17;10;rain;9;8;17;0;9;8;0;0
Steinstra�e;2023-01-04 06:00:00 +0100;Wednesday;51;10;rain;30;21;47;4;29;18;1;3
Steinstra�e;2023-01-04 07:00:00 +0100;Wednesday;77;10;rain;39;38;77;0;39;38;0;0
Steinstra�e;2023-01-04 08:00:00 +0100;Wednesday;182;10;rain;97;85;179;3;95;84;2;1
Steinstra�e;2023-01-04 09:00:00 +0100;Wednesday;428;11;rain;222;206;420;8;219;201;3;5
Steinstra�e;2023-01-04 10:00:00 +0100;Wednesday;833;11;rain;380;453;803;30;364;439;16;14
Steinstra�e;2023-01-04 11:00:00 +0100;Wednesday;860;11;rain;400;460;834;26;386;448;14;12
Steinstra�e;2023-01-04 12:00:00 +0100;Wednesday;916;11;rain;457;459;892;24;446;446;11;13
Steinstra�e;2023-01-04 13:00:00 +0100;Wednesday;936;11;rain;473;463;910;26;461;449;12;14
Steinstra�e;2023-01-04 14:00:00 +0100;Wednesday;1026;11;rain;491;535;1003;23;477;526;14;9
Steinstra�e;2023-01-04 15:00:00 +0100;Wednesday;695;12;rain;339;356;666;29;322;344;17;12
Steinstra�e;2023-01-04 16:00:00 +0100;Wednesday;998;13;rain;485;513;972;26;471;501;14;12
Steinstra�e;2023-01-04 17:00:00 +0100;Wednesday;934;13;wind;477;457;896;38;459;437;18;20
Steinstra�e;2023-01-04 18:00:00 +0100;Wednesday;459;13;rain;235;224;446;13;226;220;9;4
Steinstra�e;2023-01-04 19:00:00 +0100;Wednesday;220;12;cloudy;106;114;218;2;104;114;2;0
Steinstra�e;2023-01-04 20:00:00 +0100;Wednesday;103;12;cloudy;37;66;102;1;37;65;0;1
Steinstra�e;2023-01-04 21:00:00 +0100;Wednesday;74;12;cloudy;28;46;73;1;28;45;0;1
Steinstra�e;2023-01-04 22:00:00 +0100;Wednesday;43;11;rain;15;28;43;0;15;28;0;0
Steinstra�e;2023-01-04 23:00:00 +0100;Wednesday;18;11;cloudy;7;11;18;0;7;11;0;0
Steinstra�e;2023-01-05 00:00:00 +0100;Thursday;9;11;cloudy;4;5;9;0;4;5;0;0
Steinstra�e;2023-01-05 01:00:00 +0100;Thursday;13;11;cloudy;6;7;13;0;6;7;0;0
Steinstra�e;2023-01-05 02:00:00 +0100;Thursday;4;10;partly-cloudy-night;2;2;4;0;2;2;0;0
Steinstra�e;2023-01-05 03:00:00 +0100;Thursday;1;10;partly-cloudy-night;1;0;1;0;1;0;0;0
Steinstra�e;2023-01-05 04:00:00 +0100;Thursday;9;10;partly-cloudy-night;3;6;9;0;3;6;0;0
Steinstra�e;2023-01-05 05:00:00 +0100;Thursday;14;10;cloudy;4;10;13;1;4;9;0;1
Steinstra�e;2023-01-05 06:00:00 +0100;Thursday;34;10;cloudy;19;15;34;0;19;15;0;0
Steinstra�e;2023-01-05 07:00:00 +0100;Thursday;61;10;partly-cloudy-night;39;22;61;0;39;22;0;0
Steinstra�e;2023-01-05 08:00:00 +0100;Thursday;193;10;cloudy;103;90;187;6;97;90;6;0
Steinstra�e;2023-01-05 09:00:00 +0100;Thursday;440;10;cloudy;234;206;424;16;227;197;7;9
Steinstra�e;2023-01-05 10:00:00 +0100;Thursday;918;10;partly-cloudy-day;435;483;885;33;415;470;20;13
Steinstra�e;2023-01-05 11:00:00 +0100;Thursday;1323;10;partly-cloudy-day;646;677;1266;57;621;645;25;32
Steinstra�e;2023-01-05 12:00:00 +0100;Thursday;1546;10;cloudy;785;761;1494;52;761;733;24;28
Steinstra�e;2023-01-05 13:00:00 +0100;Thursday;1620;11;partly-cloudy-day;816;804;1565;55;781;784;35;20
Steinstra�e;2023-01-05 14:00:00 +0100;Thursday;1476;11;partly-cloudy-day;733;743;1430;46;708;722;25;21
Steinstra�e;2023-01-05 15:00:00 +0100;Thursday;1775;11;partly-cloudy-day;892;883;1699;76;847;852;45;31
Steinstra�e;2023-01-05 16:00:00 +0100;Thursday;1957;11;partly-cloudy-day;972;985;1896;61;946;950;26;35
Steinstra�e;2023-01-05 17:00:00 +0100;Thursday;1410;10;cloudy;696;714;1355;55;669;686;27;28
Steinstra�e;2023-01-05 18:00:00 +0100;Thursday;866;10;cloudy;440;426;844;22;428;416;12;10
Steinstra�e;2023-01-05 19:00:00 +0100;Thursday;279;10;cloudy;132;147;274;5;129;145;3;2
Steinstra�e;2023-01-05 20:00:00 +0100;Thursday;94;10;rain;39;55;94;0;39;55;0;0
Steinstra�e;2023-01-05 21:00:00 +0100;Thursday;127;10;rain;50;77;125;2;48;77;2;0
Steinstra�e;2023-01-05 22:00:00 +0100;Thursday;59;10;rain;27;32;58;1;26;32;1;0
Steinstra�e;2023-01-05 23:00:00 +0100;Thursday;31;10;rain;16;15;29;2;14;15;2;0
Steinstra�e;2023-01-06 00:00:00 +0100;Friday;13;9;cloudy;9;4;13;0;9;4;0;0
Steinstra�e;2023-01-06 01:00:00 +0100;Friday;3;11;cloudy;3;0;3;0;3;0;0;0
Steinstra�e;2023-01-06 02:00:00 +0100;Friday;0;11;cloudy;0;0;0;0;0;0;0;0
Steinstra�e;2023-01-06 03:00:00 +0100;Friday;4;10;cloudy;4;0;4;0;4;0;0;0
Steinstra�e;2023-01-06 04:00:00 +0100;Friday;12;10;cloudy;7;5;12;0;7;5;0;0
Steinstra�e;2023-01-06 05:00:00 +0100;Friday;11;10;cloudy;4;7;11;0;4;7;0;0
Steinstra�e;2023-01-06 06:00:00 +0100;Friday;58;10;cloudy;39;19;57;1;39;18;0;1
Steinstra�e;2023-01-06 07:00:00 +0100;Friday;87;10;cloudy;43;44;85;2;42;43;1;1
Steinstra�e;2023-01-06 08:00:00 +0100;Friday;242;10;cloudy;137;105;230;12;126;104;11;1
Steinstra�e;2023-01-06 09:00:00 +0100;Friday;647;10;rain;337;310;638;9;329;309;8;1
Steinstra�e;2023-01-06 10:00:00 +0100;Friday;1203;10;rain;619;584;1166;37;600;566;19;18
Steinstra�e;2023-01-06 11:00:00 +0100;Friday;1780;10;rain;859;921;1720;60;828;892;31;29
Steinstra�e;2023-01-06 12:00:00 +0100;Friday;1956;11;cloudy;986;970;1909;47;968;941;18;29
Steinstra�e;2023-01-06 13:00:00 +0100;Friday;1703;12;cloudy;791;912;1652;51;762;890;29;22
Steinstra�e;2023-01-06 14:00:00 +0100;Friday;1561;12;cloudy;788;773;1505;56;760;745;28;28
Steinstra�e;2023-01-06 15:00:00 +0100;Friday;1608;11;cloudy;796;812;1547;61;772;775;24;37
Steinstra�e;2023-01-06 16:00:00 +0100;Friday;1609;11;cloudy;762;847;1562;47;742;820;20;27
Steinstra�e;2023-01-06 17:00:00 +0100;Friday;1241;10;cloudy;629;612;1199;42;605;594;24;18
Steinstra�e;2023-01-06 18:00:00 +0100;Friday;764;10;cloudy;409;355;745;19;401;344;8;11
Steinstra�e;2023-01-06 19:00:00 +0100;Friday;272;10;rain;127;145;269;3;125;144;2;1
Steinstra�e;2023-01-06 20:00:00 +0100;Friday;193;11;cloudy;83;110;190;3;80;110;3;0
Steinstra�e;2023-01-06 21:00:00 +0100;Friday;128;10;cloudy;65;63;128;0;65;63;0;0
Steinstra�e;2023-01-06 22:00:00 +0100;Friday;103;10;cloudy;48;55;102;1;47;55;1;0
Steinstra�e;2023-01-06 23:00:00 +0100;Friday;54;10;cloudy;18;36;54;0;18;36;0;0
Steinstra�e;2023-01-07 00:00:00 +0100;Saturday;51;11;cloudy;17;34;50;1;17;33;0;1
Steinstra�e;2023-01-07 01:00:00 +0100;Saturday;17;11;cloudy;16;1;17;0;16;1;0;0
Steinstra�e;2023-01-07 02:00:00 +0100;Saturday;5;10;cloudy;3;2;5;0;3;2;0;0
Steinstra�e;2023-01-07 03:00:00 +0100;Saturday;10;11;cloudy;5;5;10;0;5;5;0;0
Steinstra�e;2023-01-07 04:00:00 +0100;Saturday;9;10;cloudy;1;8;9;0;1;8;0;0
Steinstra�e;2023-01-07 05:00:00 +0100;Saturday;12;10;cloudy;5;7;12;0;5;7;0;0
Steinstra�e;2023-01-07 06:00:00 +0100;Saturday;19;10;cloudy;14;5;18;1;13;5;1;0
Steinstra�e;2023-01-07 07:00:00 +0100;Saturday;38;9;partly-cloudy-night;18;20;35;3;17;18;1;2
Steinstra�e;2023-01-07 08:00:00 +0100;Saturday;90;9;cloudy;54;36;90;0;54;36;0;0
Steinstra�e;2023-01-07 09:00:00 +0100;Saturday;264;9;cloudy;139;125;257;7;135;122;4;3
Steinstra�e;2023-01-07 10:00:00 +0100;Saturday;789;9;cloudy;382;407;764;25;373;391;9;16
Steinstra�e;2023-01-07 11:00:00 +0100;Saturday;1743;9;cloudy;856;887;1683;60;826;857;30;30
Steinstra�e;2023-01-07 12:00:00 +0100;Saturday;2392;10;cloudy;1260;1132;2305;87;1208;1097;52;35
Steinstra�e;2023-01-07 13:00:00 +0100;Saturday;2674;11;cloudy;1311;1363;2594;80;1265;1329;46;34
Steinstra�e;2023-01-07 14:00:00 +0100;Saturday;2702;11;cloudy;1362;1340;2605;97;1308;1297;54;43
Steinstra�e;2023-01-07 15:00:00 +0100;Saturday;2858;11;cloudy;1420;1438;2769;89;1361;1408;59;30
Steinstra�e;2023-01-07 16:00:00 +0100;Saturday;2412;11;cloudy;1223;1189;2320;92;1173;1147;50;42
Steinstra�e;2023-01-07 17:00:00 +0100;Saturday;1490;10;cloudy;706;784;1418;72;676;742;30;42
Steinstra�e;2023-01-07 18:00:00 +0100;Saturday;773;10;cloudy;402;371;754;19;390;364;12;7
Steinstra�e;2023-01-07 19:00:00 +0100;Saturday;301;10;cloudy;162;139;298;3;161;137;1;2
Steinstra�e;2023-01-07 20:00:00 +0100;Saturday;164;10;cloudy;76;88;162;2;76;86;0;2
Steinstra�e;2023-01-07 21:00:00 +0100;Saturday;127;10;cloudy;54;73;124;3;53;71;1;2
Steinstra�e;2023-01-07 22:00:00 +0100;Saturday;110;10;rain;45;65;109;1;44;65;1;0
Steinstra�e;2023-01-07 23:00:00 +0100;Saturday;70;10;rain;27;43;69;1;26;43;1;0
Steinstra�e;2023-01-08 00:00:00 +0100;Sunday;27;10;cloudy;5;22;27;0;5;22;0;0
Steinstra�e;2023-01-08 01:00:00 +0100;Sunday;8;10;cloudy;5;3;8;0;5;3;0;0
Steinstra�e;2023-01-08 02:00:00 +0100;Sunday;10;10;cloudy;2;8;10;0;2;8;0;0
Steinstra�e;2023-01-08 03:00:00 +0100;Sunday;8;10;cloudy;3;5;8;0;3;5;0;0
Steinstra�e;2023-01-08 04:00:00 +0100;Sunday;10;10;rain;5;5;10;0;5;5;0;0
Steinstra�e;2023-01-08 05:00:00 +0100;Sunday;9;10;rain;3;6;8;1;3;5;0;1
Steinstra�e;2023-01-08 06:00:00 +0100;Sunday;13;10;rain;8;5;12;1;7;5;1;0
Steinstra�e;2023-01-08 07:00:00 +0100;Sunday;11;10;rain;6;5;11;0;6;5;0;0
Steinstra�e;2023-01-08 08:00:00 +0100;Sunday;22;10;cloudy;8;14;22;0;8;14;0;0
Steinstra�e;2023-01-08 09:00:00 +0100;Sunday;84;9;partly-cloudy-day;69;15;83;1;68;15;1;0
Steinstra�e;2023-01-08 10:00:00 +0100;Sunday;114;9;cloudy;61;53;111;3;59;52;2;1
Steinstra�e;2023-01-08 11:00:00 +0100;Sunday;258;10;cloudy;125;133;253;5;122;131;3;2
Steinstra�e;2023-01-08 12:00:00 +0100;Sunday;238;10;rain;110;128;234;4;108;126;2;2
Steinstra�e;2023-01-08 13:00:00 +0100;Sunday;348;10;rain;179;169;328;20;169;159;10;10
Steinstra�e;2023-01-08 14:00:00 +0100;Sunday;477;10;rain;277;200;461;16;264;197;13;3
Steinstra�e;2023-01-08 15:00:00 +0100;Sunday;604;10;partly-cloudy-day;317;287;583;21;304;279;13;8
Steinstra�e;2023-01-08 16:00:00 +0100;Sunday;554;10;partly-cloudy-day;268;286;531;23;251;280;17;6
Steinstra�e;2023-01-08 17:00:00 +0100;Sunday;324;9;partly-cloudy-night;131;193;314;10;125;189;6;4
Steinstra�e;2023-01-08 18:00:00 +0100;Sunday;229;9;partly-cloudy-night;110;119;223;6;105;118;5;1
Steinstra�e;2023-01-08 19:00:00 +0100;Sunday;141;9;partly-cloudy-night;72;69;137;4;68;69;4;0
Steinstra�e;2023-01-08 20:00:00 +0100;Sunday;85;9;partly-cloudy-night;44;41;84;1;43;41;1;0
Steinstra�e;2023-01-08 21:00:00 +0100;Sunday;66;8;partly-cloudy-night;30;36;66;0;30;36;0;0
Steinstra�e;2023-01-08 22:00:00 +0100;Sunday;40;8;cloudy;8;32;39;1;7;32;1;0
Steinstra�e;2023-01-08 23:00:00 +0100;Sunday;3;8;rain;1;2;3;0;1;2;0;0
Steinstra�e;2023-01-09 00:00:00 +0100;Monday;3;9;rain;3;0;3;0;3;0;0;0
Steinstra�e;2023-01-09 01:00:00 +0100;Monday;0;8;rain;0;0;0;0;0;0;0;0
Steinstra�e;2023-01-09 02:00:00 +0100;Monday;0;8;rain;0;0;0;0;0;0;0;0
Steinstra�e;2023-01-09 03:00:00 +0100;Monday;5;8;rain;4;1;5;0;4;1;0;0
Steinstra�e;2023-01-09 04:00:00 +0100;Monday;12;8;rain;4;8;12;0;4;8;0;0
Steinstra�e;2023-01-09 05:00:00 +0100;Monday;19;8;rain;10;9;18;1;9;9;1;0
Steinstra�e;2023-01-09 06:00:00 +0100;Monday;42;7;rain;28;14;41;1;27;14;1;0
Steinstra�e;2023-01-09 07:00:00 +0100;Monday;163;7;rain;86;77;158;5;84;74;2;3
Steinstra�e;2023-01-09 08:00:00 +0100;Monday;242;7;rain;140;102;235;7;134;101;6;1
Steinstra�e;2023-01-09 09:00:00 +0100;Monday;400;8;rain;200;200;388;12;192;196;8;4
Steinstra�e;2023-01-09 10:00:00 +0100;Monday;794;8;rain;397;397;767;27;380;387;17;10
Steinstra�e;2023-01-09 11:00:00 +0100;Monday;1083;8;rain;530;553;1039;44;506;533;24;20
Steinstra�e;2023-01-09 12:00:00 +0100;Monday;1101;8;rain;546;555;1053;48;529;524;17;31
Steinstra�e;2023-01-09 13:00:00 +0100;Monday;1036;7;rain;533;503;1010;26;520;490;13;13
Steinstra�e;2023-01-09 14:00:00 +0100;Monday;1006;7;rain;493;513;980;26;479;501;14;12
Steinstra�e;2023-01-09 15:00:00 +0100;Monday;1054;8;rain;508;546;1021;33;485;536;23;10
Steinstra�e;2023-01-09 16:00:00 +0100;Monday;1012;8;rain;494;518;967;45;476;491;18;27
Steinstra�e;2023-01-09 17:00:00 +0100;Monday;874;7;rain;441;433;831;43;421;410;20;23
Steinstra�e;2023-01-09 18:00:00 +0100;Monday;424;7;rain;221;203;416;8;215;201;6;2
Steinstra�e;2023-01-09 19:00:00 +0100;Monday;145;7;rain;58;87;142;3;57;85;1;2
Steinstra�e;2023-01-09 20:00:00 +0100;Monday;108;7;rain;57;51;102;6;52;50;5;1
Steinstra�e;2023-01-09 21:00:00 +0100;Monday;54;7;rain;18;36;53;1;18;35;0;1
Steinstra�e;2023-01-09 22:00:00 +0100;Monday;48;7;rain;22;26;48;0;22;26;0;0
Steinstra�e;2023-01-09 23:00:00 +0100;Monday;11;7;rain;5;6;11;0;5;6;0;0
Steinstra�e;2023-01-10 00:00:00 +0100;Tuesday;6;6;partly-cloudy-night;3;3;6;0;3;3;0;0
Steinstra�e;2023-01-10 01:00:00 +0100;Tuesday;8;6;partly-cloudy-night;8;0;8;0;8;0;0;0
Steinstra�e;2023-01-10 02:00:00 +0100;Tuesday;2;6;partly-cloudy-night;1;1;2;0;1;1;0;0
Steinstra�e;2023-01-10 03:00:00 +0100;Tuesday;2;6;partly-cloudy-night;1;1;2;0;1;1;0;0
Steinstra�e;2023-01-10 04:00:00 +0100;Tuesday;17;5;partly-cloudy-night;8;9;17;0;8;9;0;0
Steinstra�e;2023-01-10 05:00:00 +0100;Tuesday;9;5;partly-cloudy-night;3;6;9;0;3;6;0;0
Steinstra�e;2023-01-10 06:00:00 +0100;Tuesday;50;5;partly-cloudy-night;26;24;49;1;25;24;1;0
Steinstra�e;2023-01-10 07:00:00 +0100;Tuesday;149;6;partly-cloudy-night;79;70;147;2;78;69;1;1
Steinstra�e;2023-01-10 08:00:00 +0100;Tuesday;306;5;partly-cloudy-night;158;148;290;16;152;138;6;10
Steinstra�e;2023-01-10 09:00:00 +0100;Tuesday;730;5;partly-cloudy-day;370;360;688;42;353;335;17;25
Steinstra�e;2023-01-10 10:00:00 +0100;Tuesday;1405;5;partly-cloudy-day;705;700;1349;56;673;676;32;24
Steinstra�e;2023-01-10 11:00:00 +0100;Tuesday;1672;5;partly-cloudy-day;800;872;1622;50;772;850;28;22
Steinstra�e;2023-01-10 12:00:00 +0100;Tuesday;1743;6;partly-cloudy-day;875;868;1692;51;850;842;25;26
Steinstra�e;2023-01-10 13:00:00 +0100;Tuesday;1465;7;cloudy;715;750;1418;47;697;721;18;29
Steinstra�e;2023-01-10 14:00:00 +0100;Tuesday;1277;8;cloudy;643;634;1238;39;617;621;26;13
Steinstra�e;2023-01-10 15:00:00 +0100;Tuesday;1293;8;cloudy;607;686;1239;54;581;658;26;28
Steinstra�e;2023-01-10 16:00:00 +0100;Tuesday;1062;8;cloudy;524;538;1015;47;494;521;30;17
Steinstra�e;2023-01-10 17:00:00 +0100;Tuesday;471;8;rain;232;239;453;18;223;230;9;9
Steinstra�e;2023-01-10 18:00:00 +0100;Tuesday;232;7;rain;117;115;230;2;116;114;1;1
Steinstra�e;2023-01-10 19:00:00 +0100;Tuesday;116;6;rain;57;59;108;8;53;55;4;4
Steinstra�e;2023-01-10 20:00:00 +0100;Tuesday;58;6;rain;22;36;58;0;22;36;0;0
Steinstra�e;2023-01-10 21:00:00 +0100;Tuesday;35;7;rain;16;19;35;0;16;19;0;0
Steinstra�e;2023-01-10 22:00:00 +0100;Tuesday;34;8;rain;11;23;33;1;11;22;0;1
Steinstra�e;2023-01-10 23:00:00 +0100;Tuesday;12;8;rain;8;4;12;0;8;4;0;0
Steinstra�e;2023-01-11 00:00:00 +0100;Wednesday;4;9;cloudy;3;1;4;0;3;1;0;0
Steinstra�e;2023-01-11 01:00:00 +0100;Wednesday;6;9;rain;4;2;6;0;4;2;0;0
Steinstra�e;2023-01-11 02:00:00 +0100;Wednesday;2;10;cloudy;2;0;2;0;2;0;0;0
Steinstra�e;2023-01-11 03:00:00 +0100;Wednesday;0;10;rain;0;0;0;0;0;0;0;0
Steinstra�e;2023-01-11 04:00:00 +0100;Wednesday;10;11;rain;3;7;10;0;3;7;0;0
Steinstra�e;2023-01-11 05:00:00 +0100;Wednesday;10;11;rain;6;4;10;0;6;4;0;0
Steinstra�e;2023-01-11 06:00:00 +0100;Wednesday;44;11;rain;26;18;41;3;26;15;0;3
Steinstra�e;2023-01-11 07:00:00 +0100;Wednesday;129;12;rain;72;57;122;7;66;56;6;1
Steinstra�e;2023-01-11 08:00:00 +0100;Wednesday;300;12;rain;166;134;281;19;154;127;12;7
Steinstra�e;2023-01-11 09:00:00 +0100;Wednesday;608;11;rain;286;322;585;23;276;309;10;13
Steinstra�e;2023-01-11 10:00:00 +0100;Wednesday;909;10;rain;420;489;878;31;405;473;15;16
Steinstra�e;2023-01-11 11:00:00 +0100;Wednesday;1064;10;rain;519;545;1019;45;497;522;22;23
Steinstra�e;2023-01-11 12:00:00 +0100;Wednesday;1178;10;rain;568;610;1148;30;555;593;13;17
Steinstra�e;2023-01-11 13:00:00 +0100;Wednesday;1318;9;rain;660;658;1278;40;634;644;26;14
Steinstra�e;2023-01-11 14:00:00 +0100;Wednesday;1130;9;partly-cloudy-day;584;546;1096;34;566;530;18;16
Steinstra�e;2023-01-11 15:00:00 +0100;Wednesday;1513;9;partly-cloudy-day;801;712;1440;73;758;682;43;30
Steinstra�e;2023-01-11 16:00:00 +0100;Wednesday;1520;9;partly-cloudy-day;759;761;1453;67;725;728;34;33
Steinstra�e;2023-01-11 17:00:00 +0100;Wednesday;1122;9;partly-cloudy-night;589;533;1090;32;570;520;19;13
Steinstra�e;2023-01-11 18:00:00 +0100;Wednesday;593;9;partly-cloudy-night;298;295;578;15;290;288;8;7
Steinstra�e;2023-01-11 19:00:00 +0100;Wednesday;207;9;partly-cloudy-night;95;112;204;3;94;110;1;2
Steinstra�e;2023-01-11 20:00:00 +0100;Wednesday;113;9;cloudy;45;68;110;3;45;65;0;3
Steinstra�e;2023-01-11 21:00:00 +0100;Wednesday;73;9;cloudy;32;41;73;0;32;41;0;0
Steinstra�e;2023-01-11 22:00:00 +0100;Wednesday;25;9;cloudy;8;17;25;0;8;17;0;0
Steinstra�e;2023-01-11 23:00:00 +0100;Wednesday;14;9;rain;9;5;14;0;9;5;0;0
Steinstra�e;2023-01-12 00:00:00 +0100;Thursday;8;9;rain;3;5;8;0;3;5;0;0
Steinstra�e;2023-01-12 01:00:00 +0100;Thursday;4;9;rain;3;1;4;0;3;1;0;0
Steinstra�e;2023-01-12 02:00:00 +0100;Thursday;0;9;rain;0;0;0;0;0;0;0;0
Steinstra�e;2023-01-12 03:00:00 +0100;Thursday;3;9;rain;2;1;3;0;2;1;0;0
Steinstra�e;2023-01-12 04:00:00 +0100;Thursday;6;9;rain;2;4;6;0;2;4;0;0
Steinstra�e;2023-01-12 05:00:00 +0100;Thursday;15;9;rain;6;9;15;0;6;9;0;0
Steinstra�e;2023-01-12 06:00:00 +0100;Thursday;16;9;rain;7;9;16;0;7;9;0;0
Steinstra�e;2023-01-12 07:00:00 +0100;Thursday;135;9;rain;71;64;135;0;71;64;0;0
Steinstra�e;2023-01-12 08:00:00 +0100;Thursday;140;9;rain;77;63;139;1;76;63;1;0
Steinstra�e;2023-01-12 09:00:00 +0100;Thursday;337;9;rain;177;160;327;10;171;156;6;4
Steinstra�e;2023-01-12 10:00:00 +0100;Thursday;652;9;rain;291;361;620;32;268;352;23;9
Steinstra�e;2023-01-12 11:00:00 +0100;Thursday;735;9;rain;351;384;718;17;343;375;8;9
Steinstra�e;2023-01-12 12:00:00 +0100;Thursday;967;9;rain;479;488;945;22;466;479;13;9
Steinstra�e;2023-01-12 13:00:00 +0100;Thursday;849;9;rain;414;435;834;15;406;428;8;7